Regional Weather Roundup
Issued by NWS State College, PA

Home | Current Version | Previous Version | Text Only | Print | Product List | Glossary On
Versions: 1 2 3 4 5 6 7 8 9 10 11 12 13 14 15 16 17 18 19 20 21 22 23 24 25 26 27 28 29 30 31 32 33 34 35 36 37 38 39 40 41 42 43 44 45 46 47 48 49 50
000
ASUS41 KCTP 192210
RWRCTP

REGIONAL WEATHER ROUNDUP
NATIONAL WEATHER SERVICE STATE COLLEGE PA
500 PM EST THU JAN 19 2017

Note: "fair" indicates few or no clouds below 12,000 feet with no
significant weather and/or obstructions to visibility.

* = STATION THAT DOES NOT REPORT PRECIPITATION /E.G. RAIN...SNOW...ETC/
    THUNDER OR FOG.

PAZ002>004-007>009-013>016-020>023-029>032-192300-
WESTERN PENNSYLVANIA

CITY           SKY/WX    TMP DP  RH WIND       PRES   REMARKS
ERIE           CLOUDY    36  32  85 CALM      30.02R
MEADVILLE      CLOUDY    38  33  82 VRB3      29.99S
FRANKLIN*        N/A     37  32  81 S5        30.01R
NEW CASTLE     CLOUDY    40  34  79 SW5       30.02S
BEAVER COUNTY  CLOUDY    39  34  81 S5        30.00F
BUTLER*        CLOUDY    39  32  75 S5        30.03F
PITTSBURGH INT CLOUDY    41  35  79 VRB3      30.00F
PITTSBURGH     CLEAR     41  32  70 NW3       30.00S
INDIANA*       MOCLDY    41  36  81 W3        30.04R
LATROBE        CLEAR     43  36  75 W9        30.02S
WASHINGTON CO* MOCLDY    41  34  75 CALM      30.01F
$$

PAZ004>006-010>012-017>019-024>028-033>037-041-042-045-046-049>053-192300-
CENTRAL PENNSYLVANIA

CITY           SKY/WX    TMP DP  RH WIND       PRES   REMARKS
BRADFORD       CLOUDY    35  34  96 SW6       29.97R
DUBOIS         CLOUDY    37  31  78 SW5       30.00R
CLEARFIELD     CLOUDY    39  33  79 SW7       30.01R
JOHNSTOWN      CLEAR     41  34  76 W5        29.97S
ALTOONA        CLEAR     44  34  67 CALM      30.01R
STATE COLLEGE  CLEAR     39  32  75 W7        30.02R
WILLIAMSPORT   CLOUDY    42  33  70 SE3       29.98F
SELINSGROVE    PTCLDY    44  34  67 CALM      30.02R
FT INDIANTOWN  CLOUDY    46  35  65 CALM      30.02R
CAPITAL CITY   CLOUDY    49  32  52 CALM      30.02R
HARRISBURG     CLOUDY    44  35  70 CALM      30.01R
YORK           CLOUDY    48  36  63 CALM      30.01R
$$

PAZ038>040-043-044-047-048-054-055-060>062-067>071-192300-
EASTERN PENNSYLVANIA

CITY           SKY/WX    TMP DP  RH WIND       PRES   REMARKS
SCRANTON       CLOUDY    40  33  76 CALM      29.99S
MOUNT POCONO   CLOUDY    34  29  82 CALM      29.96R
ALLENTOWN      CLOUDY    44  32  62 NW3       30.01S
QUAKERTOWN*    CLOUDY    43  34  70 N3        30.02R
READING        CLOUDY    44  35  70 N5        30.01S
LANCASTER      CLOUDY    46  36  68 NW3       30.01R
COATESVILLE    CLOUDY    43  36  75 CALM      30.02S
POTTSTOWN      CLOUDY    43  33  68 N5        30.02S
BLUE BELL      CLOUDY    41  36  81 CALM      30.01S
DOYLESTOWN     CLOUDY    45  35  68 N3        30.01R
WILLOW GROVE   NOT AVBL
NORTH PHILA    PTCLDY    43  34  70 N5        30.04R
PHILADELPHIA   CLOUDY    46  34  62 NE5       30.03S
$$




USA.gov is the U.S. government's official web portal to all federal, state and local government web resources and services.